Regional Weather Roundup
Issued by NWS

Home | Current Version | Previous Version | Text Only | Print | Product List | Glossary On
Versions: 1 2 3 4 5 6 7 8 9 10 11 12 13 14 15 16 17 18 19 20 21 22 23 24 25 26 27 28 29 30 31 32 33 34 35 36 37 38 39 40 41 42 43 44 45 46 47 48 49 50
000
ASUS42 KFFC 181910
RWRGA
WEATHER ROUNDUP FOR GEORGIA
NATIONAL WEATHER SERVICE PEACHTREE CITY GA
300 PM EDT WED OCT 18 2017

NOTE: "FAIR" INDICATES FEW OR NO CLOUDS BELOW 12,000 FEET WITH NO
SIGNIFICANT WEATHER AND/OR OBSTRUCTIONS TO VISIBILITY.

* = USE WITH CAUTION. THE STATIONS MARKED WITH AN ASTERISK MAY NOT
REPORT WEATHER SUCH AS PRECIPITATION, FOG, OR THUNDER AND ARE NOT
QUALITY CONTROLLED BY NWS.

THE REMARK "TC" DENOTES TEMPERATURE READING IN DEGREES CELSIUS.

GAZ001>058-182000-
NORTH GEORGIA

CITY           SKY/WX    TMP DP  RH WIND       PRES   REMARKS
ATLANTA        MOSUNNY   69  42  37 E8        30.28F
ATHENS         SUNNY     70  42  36 NE6       30.30F
CHAMBLEE       SUNNY     67  41  38 MISG      30.29F
PEACHTREE CITY SUNNY     70  42  36 E5        30.28F
ROME           SUNNY     70  46  42 VRB3      30.27F
WEST ATLANTA   SUNNY     69  42  37 NE7       30.28F
GAINESVILLE    SUNNY     67  42  40 E7        30.32F
CARTERSVILLE   SUNNY     70  45  40 NE6       30.29F


CITY           SKY/WX    TMP DP  RH WIND       PRES   REMARKS
DALTON*        SUNNY     68  46  45 CALM      30.30F
LAWRENCEVILLE* SUNNY     68  41  37 E8        30.30F
MARIETTA       MOSUNNY   68  41  36 SE7       30.28F
KENNESAW*      SUNNY     69  43  38 E8        30.30F
CANTON*        SUNNY     70  43  37 CALM      30.31F
$$

GAZ059>098-102>109-182000-
CENTRAL GEORGIA

CITY           SKY/WX    TMP DP  RH WIND       PRES   REMARKS
AUGUSTA-BUSH   SUNNY     75  38  26 MISG      30.27F
AUGUSTA-DANIEL SUNNY     73  36  25 E9        30.29F
COLUMBUS       SUNNY     72  41  32 SE8       30.24F
MACON          SUNNY     73  38  27 NE7       30.26F
ROBINS AFB     SUNNY     73  40  30 NE8       30.24F


CITY           SKY/WX    TMP DP  RH WIND       PRES   REMARKS
LAGRANGE*      SUNNY     72  44  35 NE5       30.26F
SYLVANIA*      SUNNY     74  55  50 NE6       30.26F
MILLEDGEVILLE* SUNNY     73  43  33 NE6       30.27F
$$

GAZ099>101-110>166-182000-
SOUTH GEORGIA

CITY           SKY/WX    TMP DP  RH WIND       PRES   REMARKS
SAVANNAH       MOSUNNY   76  58  53 VRB5      30.23F
VALDOSTA       MOSUNNY   78  60  53 NE10      30.17F
ALMA           SUNNY     78  57  48 E5        30.20F
ST SIMONS      CLOUDY    73  65  75 NE18G25   30.21F
FT STEWART     SUNNY     76  56  50 E9        30.20F
ALBANY         SUNNY     76  54  46 VRB5      30.22F
HUNTER AFB     SUNNY     75  58  57 NE7       30.20F
MOODY AFB      PTSUNNY   78  58  50 E7        30.17F
BRUNSWICK      CLOUDY    72  61  68 NE15G22   30.22F


CITY           SKY/WX    TMP DP  RH WIND       PRES   REMARKS
BAINBRIDGE*    SUNNY     79  61  53 E9        30.19F
MOULTRIE*      SUNNY     77  55  47 E7        30.20F
VIDALIA*       SUNNY     77  50  38 NE12G17   30.23F
WAYCROSS*      SUNNY     78  53  41 E13       30.20F
DOUGLAS*       SUNNY     77  54  44 E8        30.22F
$$



USA.gov is the U.S. government's official web portal to all federal, state and local government web resources and services.